Tracking 29892 objects as of 21-Nov-2024
HD Live streaming from Space Station
objects crossing your sky now

STARLINK-2582

Track STARLINK-2582 now!
10-day predictions
STARLINK-2582 is classified as:


NORAD ID: 48460
Int'l Code: 2021-040AJ
Perigee: 553.1 km
Apogee: 555.6 km
Inclination: 53.1 °
Period: 95.6 minutes
Semi major axis: 6925 km
RCS: Unknown
Launch date: May 9, 2021
Source: United States (US)
Launch site: AIR FORCE EASTERN TEST RANGE (AFETR)
Your satellite tracking list
Your tracking list is empty




NASA's NSSDC Master Catalog

Two Line Element Set (TLE):
1 48460U 21040AJ  24324.80853826  .00001567  00000-0  12404-3 0  9997
2 48460  53.0525 158.4392 0001850  87.5096 272.6105 15.06405164195498
Source of the keplerian elements: AFSPC